Location: D�pe
(52.6057°N, 8.1808°E)
Time: 01:44:35
(UTC+00:00)

Cosmos 1825 - Pass Details

Date: 29 October 2020
Orbit: 502 x 508 km, 82.5° (Epoch: 23 November)

Event Time Altitude Azimuth Distance (km) Brightness Sun altitude
Rises 18:43:47 0° 342° (NNW) 2,628 6.2 -24.9°
Reaches altitude 10° 18:46:03 10° 332° (NNW) 1,735 5.3 -25.3°
Maximum altitude 18:49:28 32° 268° (W) 887 3.9 -25.8°
Enters shadow 18:52:10 14° 210° (SSW) 1,471 4.7 -26.2°
